Weather History for Ft Lauderdale, FL

Change the Weather History Date:

Wednesday, February 27, 2013

  Actual Average Record
Temperature  
Mean Temperature 72 °F 72 °F  
Max Temperature 78 °F 78 °F 88 °F (1959)
Min Temperature 66 °F 65 °F 38 °F (1967)
Degree Days  
Heating Degree Days 0 1  
Month to date heating degree days 19 27  
Since 1 July heating degree days 43 107  
Cooling Degree Days 7 7  
Month to date cooling degree days 200 180  
Year to date cooling degree days 455 350  
Growing Degree Days 22 (Base 50)    
Moisture  
Dew Point 66 °F    
Average Humidity 77    
Maximum Humidity 93    
Minimum Humidity 60    
Precipitation  
Precipitation 0.23 in 0.10 in 3.65 in (1983)
Month to date precipitation 2.14 2.88  
Year to date precipitation 3.12 6.51  
Snow  
Snow 0.00 in - - ()
Month to date snowfall 0.0  
Since 1 July snowfall 0.0  
Snow Depth 0.00 in    
Sea Level Pressure  
Sea Level Pressure 29.93 in    
Wind  
Wind Speed 5 mph (WNW)    
Max Wind Speed 16 mph    
Max Gust Speed 18 mph    
Visibility 8 miles    
Events Rain    
T = Trace of Precipitation, MM = Missing Value Source: NWS Daily Summary

Daily Weather History Graph

Daily Weather History Graph

Search for Another Location

Airport:

Trip Planner

Search our weather history database for the weather conditions in past years. The results will help you decide how hot, cold, wet, or windy it might be!

Date:

Astronomy

Feb. 27, 2013 Rise Set
Actual Time 6:45 AM EST 6:21 PM EST
Civil Twilight 6:22 AM EST 6:44 PM EST
Nautical Twilight 5:55 AM EST 7:11 PM EST
Astronomical Twilight 5:28 AM EST 7:37 PM EST
Moon 8:21 PM EST (2/27) 7:36 AM EST (2/27)
Length of Visible Light 12h 21m
Length of Day
11h 35m
Waning Gibbous, 96% of the Moon is Illuminated
Feb 27
Waning Gibbous
Mar 4
Last Quarter
Mar 11
New
Mar 19
First Quarter
Mar 27
Full

Hourly Weather History & Observations

Time (EST) Temp. Dew Point Humidity Pressure Visibility Wind Dir Wind Speed Gust Speed Precip Events Conditions
12:53 AM 77.0 °F 72.0 °F 84% 29.90 in 10.0 mi SW 5.8 mph - N/A   Scattered Clouds
1:53 AM 75.9 °F 71.1 °F 85% 29.88 in 10.0 mi SSW 4.6 mph - N/A   Partly Cloudy
2:42 AM 75.2 °F 71.6 °F 89% 29.87 in 10.0 mi SW 3.5 mph - N/A   Mostly Cloudy
2:53 AM 75.0 °F 72.0 °F 90% 29.87 in 10.0 mi SW 3.5 mph - N/A   Mostly Cloudy
3:23 AM 75.2 °F 71.6 °F 89% 29.87 in 10.0 mi Calm Calm - N/A   Scattered Clouds
3:53 AM 75.9 °F 72.0 °F 87% 29.87 in 10.0 mi West 6.9 mph - N/A   Overcast
3:59 AM 75.2 °F 73.4 °F 94% 29.87 in 9.0 mi West 9.2 mph - N/A   Overcast
4:53 AM 75.0 °F 72.0 °F 90% 29.87 in 10.0 mi WNW 8.1 mph - N/A   Overcast
5:03 AM 75.2 °F 71.6 °F 89% 29.88 in 10.0 mi West 5.8 mph - N/A   Mostly Cloudy
5:53 AM 73.9 °F 70.0 °F 87% 29.90 in 10.0 mi WNW 5.8 mph - N/A   Overcast
6:50 AM 69.8 °F 64.4 °F 83% 29.92 in 1.5 mi NW 9.2 mph - 0.02 in Rain Rain
6:53 AM 70.0 °F 64.9 °F 84% 29.92 in 2.5 mi NW 6.9 mph - 0.02 in Rain Rain
7:00 AM 69.8 °F 64.4 °F 83% 29.93 in 8.0 mi NW 6.9 mph - 0.00 in   Overcast
7:24 AM 69.8 °F 64.4 °F 83% 29.93 in 7.0 mi NW 8.1 mph - 0.00 in   Overcast
7:53 AM 70.0 °F 66.0 °F 87% 29.93 in 8.0 mi NW 6.9 mph - 0.01 in   Overcast
8:53 AM 71.1 °F 66.0 °F 84% 29.95 in 8.0 mi NNW 11.5 mph - N/A   Mostly Cloudy
9:53 AM 75.0 °F 64.9 °F 71% 29.96 in 9.0 mi NNW 6.9 mph - N/A   Scattered Clouds
10:53 AM 77.0 °F 63.0 °F 62% 29.96 in 10.0 mi NNW 8.1 mph - N/A   Scattered Clouds
11:53 AM 77.0 °F 63.0 °F 62% 29.96 in 10.0 mi Calm Calm - N/A   Mostly Cloudy
12:53 PM 73.0 °F 64.0 °F 73% 29.95 in 7.0 mi WSW 3.5 mph - 0.00 in Rain Light Rain
1:07 PM 71.6 °F 64.4 °F 78% 29.95 in 1.8 mi WNW 5.8 mph - 0.03 in Rain Rain
1:09 PM 71.6 °F 64.4 °F 78% 29.95 in 3.0 mi West 6.9 mph - 0.05 in Rain Heavy Rain
1:53 PM 69.1 °F 66.0 °F 90% 29.95 in 4.0 mi NW 4.6 mph - 0.15 in Rain Light Rain
2:15 PM 68.0 °F 66.2 °F 94% 29.93 in 7.0 mi Calm Calm - 0.00 in   Mostly Cloudy
2:25 PM 69.8 °F 66.2 °F 88% 29.94 in 6.0 mi Calm Calm - 0.00 in Rain Light Rain
2:40 PM 69.8 °F 66.2 °F 88% 29.92 in 6.0 mi Calm Calm - 0.00 in   Overcast
2:53 PM 70.0 °F 66.9 °F 90% 29.92 in 7.0 mi Calm Calm - 0.00 in   Overcast
3:53 PM 70.0 °F 66.0 °F 87% 29.91 in 10.0 mi Calm Calm - N/A   Mostly Cloudy
4:53 PM 70.0 °F 64.9 °F 84% 29.92 in 6.0 mi NW 6.9 mph - 0.01 in Rain Light Rain
5:30 PM 68.0 °F 66.2 °F 94% 29.93 in 9.0 mi NW 10.4 mph - 0.00 in   Overcast
5:53 PM 68.0 °F 64.0 °F 87% 29.93 in 10.0 mi NNW 8.1 mph - 0.00 in   Overcast
6:02 PM 68.0 °F 64.4 °F 88% 29.93 in 10.0 mi NNW 6.9 mph - N/A   Overcast
6:07 PM 68.0 °F 64.4 °F 88% 29.93 in 10.0 mi NW 6.9 mph - N/A   Overcast
6:53 PM 68.0 °F 64.9 °F 90% 29.94 in 10.0 mi NNW 5.8 mph - N/A   Overcast
7:53 PM 68.0 °F 63.0 °F 84% 29.95 in 10.0 mi NNW 8.1 mph - 0.00 in   Overcast
8:53 PM 66.9 °F 64.0 °F 90% 29.97 in 9.0 mi NW 5.8 mph - 0.00 in Rain Light Rain
9:31 PM 66.2 °F 64.4 °F 94% 29.97 in 4.0 mi Calm Calm - 0.03 in Rain Light Rain
9:36 PM 66.2 °F 64.4 °F 94% 29.97 in 3.0 mi Calm Calm - 0.03 in Rain Light Rain
9:45 PM 66.2 °F 64.4 °F 94% 29.97 in 3.0 mi Calm Calm - 0.04 in Rain Light Rain
9:53 PM 66.0 °F 64.9 °F 96% 29.97 in 5.0 mi Calm Calm - 0.04 in Rain Light Rain
10:02 PM 66.2 °F 64.4 °F 94% 29.97 in 9.0 mi Calm Calm - 0.00 in   Overcast
10:18 PM 66.2 °F 64.4 °F 94% 29.96 in 10.0 mi Calm Calm - 0.00 in   Overcast
10:24 PM 66.2 °F 64.4 °F 94% 29.96 in 10.0 mi Calm Calm - 0.00 in   Overcast
10:53 PM 66.9 °F 64.0 °F 90% 29.96 in 10.0 mi West 3.5 mph - 0.00 in   Overcast
11:15 PM 66.2 °F 64.4 °F 94% 29.96 in 10.0 mi Calm Calm - N/A   Overcast
11:34 PM 66.2 °F 64.4 °F 94% 29.96 in 10.0 mi NW 5.8 mph - N/A   Overcast
11:53 PM 66.9 °F 64.9 °F 93% 29.96 in 10.0 mi NW 4.6 mph - N/A   Overcast